Regional Weather Roundup
Issued by NWS Charleston, SC

Current Version | Previous Version | Text Only | Print | Product List | Glossary On
Versions: 1 2 3 4 5 6 7 8 9 10 11 12 13 14 15 16 17 18 19 20 21 22 23 24 25 26 27 28 29 30 31 32 33 34 35 36 37 38 39 40 41 42 43 44 45 46 47 48 49 50
000 ASUS42 KCHS 040827 RWRCHS REGIONAL WEATHER ROUNDUP NATIONAL WEATHER SERVICE CHARLESTON SC 400 AM EDT SAT JUL 04 2015 NOTE: "FAIR" INDICATES FEW OR NO CLOUDS BELOW 12,000 FEET WITH NO SIGNIFICANT WEATHER AND/OR OBSTRUCTIONS TO VISIBILITY. NOT ALL STATIONS ARE QUALITY CONTROLLED BY THE NATIONAL WEATHER SERVICE. USE DATA WITH CAUTION...ESPECIALLY DEWPOINT OBSERVATIONS. SCZ027-030-031-034>040-042>050-040900- ...SOUTHEAST SOUTH CAROLINA... CITY SKY/WX TMP DP RH WIND PRES REMARKS N CHARLESTON MOCLDY 71 67 87 S3 30.02F WATERFRONT PAR N/A 77 68 73 N6 30.01R MOUNT PLEASANT FAIR 72 70 94 S5 30.02F JOHNS ISLAND FAIR 75 72 88 CALM 30.03F PINOPOLIS NOT AVBL MONCKS CORNER FAIR 70 66 88 CALM 30.02R SUMMERVILLE FAIR 68 68 100 CALM 30.03S BEAUFORT MCAS CLEAR 79 73 82 N3 30.02S BEAUFORT ARPT FAIR 79 73 83 SW3 30.03R HILTON HEAD IS PTCLDY 81 75 83 S6 30.04S WALTERBORO MOSUNNY 68 64 88 CALM 30.03S ALLENDALE FAIR 72 68 88 CALM 30.03R ...SOUTHERN MIDLANDS AND PEE DEE... CITY SKY/WX TMP DP RH WIND PRES REMARKS GEORGETOWN NOT AVBL KINGSTREE NOT AVBL ORANGEBURG TSTM 72 69 90 W12 30.04R FOG BARNWELL FAIR 72 70 94 CALM 30.04R AIKEN NOT AVBL MANNING LGT RAIN 73 64 73 W8 30.03R COLUMBIA MOCLDY 75 70 84 SW12 30.01R SUMTER MOCLDY 73 71 92 SW9 29.97F FLORENCE CLEAR 77 69 76 SW13 29.97R MYRTLE BEACH PTCLDY 79 68 69 SW14G24 30.01S N MYRTLE BEACH CLEAR 78 72 81 SW9 29.98R $$ GAZ063-065-086>088-099>101-113>116-118-119-134>141-150-040900- ...SOUTHEAST GEORGIA... CITY SKY/WX TMP DP RH WIND PRES REMARKS SAVANNAH ARPT CLEAR 78 71 79 S7 30.03S HUNTER AAF CLEAR 78 74 86 SW6 30.02R FORT STEWART CLEAR 76 72 87 S3 30.02R STATESBORO NOT AVBL SYLVANIA MOSUNNY 73 73 100 CALM 30.05R CLAXTON FAIR 75 73 94 CALM 30.04R ...CSRA...CENTRAL AND FAR SOUTHEAST GEORGIA... CITY SKY/WX TMP DP RH WIND PRES REMARKS THOMSON CLOUDY 71 71 100 CALM 30.06R AUGUSTA-BUSH CLOUDY 71 70 96 E6 30.00F AUGUSTA-DANIEL CLOUDY 71 67 87 NE3 30.02S SWAINSBORO FAIR 75 72 88 CALM 30.04R VIDALIA CLEAR 75 72 88 SW3 30.05R EASTMAN FAIR 74 73 99 CALM 30.07S HAZLEHURST FAIR 78 75 93 CALM 30.06R ALMA CLEAR 75 72 90 SW3 30.06R WAYCROSS CLEAR 79 77 94 CALM 30.06R JESUP FAIR 73 72 94 CALM 30.06R BAXLEY FAIR 77 73 88 W3 30.06R BRUNSWICK PTCLDY 79 73 83 SW3 30.06S SAINT SIMONS PTCLDY 79 72 79 SW9 30.05R $$ SCZ027-028-034-036>038-045-046-048>050-GAZ119-141-040900- ...LAKE AND SUPPLEMENTAL COASTAL OBSERVATIONS... STATION/POSITION TIME TEMP WIND PRES WAVE SWELL AIR SEA DIR/SP/G HT/PER HT/PER/DIR (UTC) (F) (DEG/KT/KT) (MB) (FT/S) (FT/S/D) UPR LAKE MARION NOT AVBL WINYAH BAY 0745 75 240/ 10 1015.0S LAKE MURRAY 0700 78 210/ 14/ 18 1014.9S ACE BASIN NERRS NOT AVBL FORT PULASKI 0800 79 84 210/ 5/ 8 1017.5R SAPELO ISLAND 0800 78 210/ 7 1017.0S $$ ANZ835-935-AMZ111-154-330-350-352-354-370-450-454-472-040900- ...C-MAN AND BUOY OBSERVATIONS... STATION/POSITION TIME TEMP WIND PRES WAVE SWELL AIR SEA DIR/SP/G HT/PER HT/PER/DIR (UTC) (F) (DEG/KT/KT) (MB) (FT/S) (FT/S/D) BUOY 41004 0750 82 81 230/ 19/ 23 1016.2R 6/ 6 2/15 BUOY 41008 0750 80 79 210/ 12/ 16 1017.5R 3/ 5 2/140/ 9 FOLLY BEACH CMAN 0800 77 340/ 3/ 4 1017.0S CAPERS NEARSHORE 0708 80 320/ 17/ 27 1017.9R FRIPP NEARSHORE NOT AVBL STATION/POSITION TIME TEMP WIND PRES WAVE SWELL AIR SEA DIR/SP/G HT/PER HT/PER/DIR (UTC) (F) (DEG/KT/KT) (MB) (FT/S) (FT/S/D) 5E ST. MARYS GA 0721 76 N/A 2/ 9 FRYING PAN BUOY 0750 83 79 220/ 23/ 27 1015.6S 5/ 6 2/190/11 BUOY 41025 0750 81 81 240/ 27/ 31 1012.5F 8/ 7 2/210/15 CAPE LOOKOUT NC 0800 80 240/ 14/ 21 1013.4F BUOY 41002 0750 81 80 240/ 14/ 17 1018.8R 5/ 6 2/110/ 8 BUOY 41010 0720 83 84 190/ 8/ 10 1019.3F ST AUGUSTINE FL 0800 75 73 210/ 4/ 5 1019.0F $$

USA.gov is the U.S. government's official web portal to all federal, state and local government web resources and services.